TOURFACTS.DK  
Stats and Facts from Tour de France.

Tour de France 2017 starts in 2 days
  Riders   Stages   Teams   Summits   Yearly  


 
Search by year

 After:  2016 - Stage 21:
  14626 starters.
  5126 different riders.
  634 teams.
  2211 stages.
  454 restdays.
  436049.60 km.
  5622 abandonnees.


Top 3
Christopher Froome89:04:48
Romain Bardet89:08:53
Nairo Quintana89:09:09
Rafal Majka209 pt.
Thomas De Gendt130 pt.
Jarlinson Pantano ..121 pt.
Peter Sagan470 pt.
Marcel Kittel228 pt.
Michael Matthews199 pt.
Adam Yates89:09:30
Louis Meintjes89:11:46
Emanuel Buchmann89:52:28
Facts from Tour de France 2015
  |   Stages.  |   Stage winners.  |   Days in yellow  |   Average speed.  |   Route.  |   Teams.  |   All riders.  |   Rookies.  |   Withdrawls.  |  

  |   GC.  |   Polka  |   Green  |   White  |   Summits. (In tour)  |   Summits. (Points)  |   Miscellaneous.  |  

Stage 20 on 25 - 07 - 2015
         Owning:    Christopher Froome      Romain Bardet      Peter Sagan      Nairo Quintana  

Pick a stage:  1 2 3 4 5 6 7 8 10 11 12 13 14 15 16 17 18 19 20 21
  Modane ValfréjusAlpe-d´Huez | Dist: 110.50 km.
Cat: HCol de la Croix de FerFRAAlexandre Geniez25 points 
Cat: HCol de la Croix de FerFRAAlexandre Geniez25 points 

Average speed for all riders in stage:  31,203 km./hr.
    Place:Name:Team:Time:Km/h:
FRAThibaut PinotFRAFDJ03:17:21  +  00:00:00=33,595 
COLNairo QuintanaESPMovistar Team03:17:39  +  00:00:18=33,544 
CANRyder HesjedalUSATeam Cannondale - Garmin03:18:02  +  00:00:41=33,479 
4 ESPAlejandro ValverdeESPMovistar Team03:18:59  +  00:01:38=33,319 
5 KENChristopher FroomeGBRSky Procycling03:18:59  +  00:01:38=33,319 
6 FRAPierre RollandFRATeam Europcar03:19:02  +  00:01:41=33,311 
7 AUSRichie PorteGBRSky Procycling03:19:32  +  00:02:11=33,228 
8 COLWinner AnaconaESPMovistar Team03:19:53  +  00:02:32=33,169 
9 NLDWout PoelsGBRSky Procycling03:20:11  +  00:02:50=33,120 
10 ESPRubén PlazaITALampre-Merida03:20:11  +  00:02:50=33,120 
11 ENGSimon YatesAUSOrica - GreenEDGE03:20:27  +  00:03:06=33,076 
12 ESPJoaquim RodriguezRUSTeam Katusha03:20:33  +  00:03:12=33,059 
13 LUXBob JungelsUSATrek Factory Racing03:20:47  +  00:03:26=33,021 
14 NLDBauke MollemaUSATrek Factory Racing03:20:51  +  00:03:30=33,010 
15 ITAVincenzo NibaliKAZAstana Pro Team03:20:51  +  00:03:30=33,010 
16 ESPAlberto ContadorRUSTinkoff Saxo03:20:51  +  00:03:30=33,010 
17 POLRafal MajkaRUSTinkoff Saxo03:20:51  +  00:03:30=33,010 
18 FRARomain BardetFRAAg2r La Mondiale03:20:51  +  00:03:30=33,010 
19 NLDSteven KruijswijkNLDTeam Lotto NL - Jumbo03:20:51  +  00:03:30=33,010 
20 NLDRobert GesinkNLDTeam Lotto NL - Jumbo03:20:51  +  00:03:30=33,010 
21 FRAAlexis VuillermozFRAAg2r La Mondiale03:21:37  +  00:04:16=32,884 
22 ENGAdam YatesAUSOrica - GreenEDGE03:21:48  +  00:04:27=32,854 
23 CHEMathias FrankCHEIAM Cycling03:21:59  +  00:04:38=32,824 
24 FRANicolas EdetFRACofidis – Solutions Crédits03:22:14  +  00:04:53=32,784 
25 FRAAlexandre GeniezFRAFDJ03:22:17  +  00:04:56=32,776 
26 ESPSamuel SanchezUSABMC Racing Team03:22:22  +  00:05:01=32,762 
27 USAAndrew TalanskyUSATeam Cannondale - Garmin03:22:40  +  00:05:19=32,714 
28 ENGDaniel MartinUSATeam Cannondale - Garmin03:22:51  +  00:05:30=32,684 
29 FRAPierrick FédrigoFRABretagne - Séché Environnement03:23:14  +  00:05:53=32,623 
30 BELThomas De GendtBELLotto Soudal03:23:14  +  00:05:53=32,623 
31 BELJan BakelantsFRAAg2r La Mondiale03:23:14  +  00:05:53=32,623 
32 ENGStephen CummingsZAFMTN - Qhubeka P/B Samsung03:23:14  +  00:05:53=32,623 
33 BELSerge PauwelsZAFMTN - Qhubeka P/B Samsung03:23:14  +  00:05:53=32,623 
34 FRAWarren BarguilDEUTeam Giant Alpecin03:23:14  +  00:05:53=32,623 
35 WALGeraint ThomasGBRSky Procycling03:23:14  +  00:05:53=32,623 
36 DNKLars BakBELLotto Soudal03:23:47  +  00:06:26=32,535 
37 CZERoman KreuzigerRUSTinkoff Saxo03:24:01  +  00:06:40=32,497 
38 FRANicolas RocheGBRSky Procycling03:24:04  +  00:06:43=32,489 
39 FRAChristophe RiblonFRAAg2r La Mondiale03:24:33  +  00:07:12=32,413 
40 FRAMickaël CherelFRAAg2r La Mondiale03:24:33  +  00:07:12=32,413 
41 COLJosé SerpaITALampre-Merida03:25:25  +  00:08:04=32,276 
42 ESPRafael Valls FerriITALampre-Merida03:25:25  +  00:08:04=32,276 
43 PRTNelson OliveiraITALampre-Merida03:25:25  +  00:08:04=32,276 
44 ERIDaniel TeklehaimanotZAFMTN - Qhubeka P/B Samsung03:25:30  +  00:08:09=32,263 
45 ESPJonathan CastroviejoESPMovistar Team03:25:30  +  00:08:09=32,263 
46 ESPLuis Angel MateFRACofidis – Solutions Crédits03:25:30  +  00:08:09=32,263 
47 CHEMarcel WyssCHEIAM Cycling03:26:01  +  00:08:40=32,182 
48 ESPDaniel NavarroFRACofidis – Solutions Crédits03:26:06  +  00:08:45=32,169 
49 ITAGiampaolo CarusoRUSTeam Katusha03:26:06  +  00:08:45=32,169 
50 CZEJan BártaDEUBora-Argon 1803:26:06  +  00:08:45=32,169 
51 ITAMichele ScarponiKAZAstana Pro Team03:26:16  +  00:08:55=32,143 
52 FRAThomas VoecklerFRATeam Europcar03:26:38  +  00:09:17=32,086 
53 FRARomain SicardFRATeam Europcar03:26:53  +  00:09:32=32,047 
54 USRTanel KangertKAZAstana Pro Team03:26:57  +  00:09:36=32,037 
55 FRASylvain ChavanelCHEIAM Cycling03:28:25  +  00:11:04=31,811 
56 COLJarlinson Pantano GomezCHEIAM Cycling03:28:25  +  00:11:04=31,811 
57 PRTTiago PintoRUSTeam Katusha03:28:48  +  00:11:27=31,753 
58 ESPAlberto LosadaRUSTeam Katusha03:28:48  +  00:11:27=31,753 
59 CHEJakob FuglsangKAZAstana Pro Team03:29:34  +  00:12:13=31,637 
60 NLDStef ClementCHEIAM Cycling03:29:47  +  00:12:26=31,604 
61 NLDPieter WeeningAUSOrica - GreenEDGE03:29:47  +  00:12:26=31,604 
62 DEUSimon GeschkeDEUTeam Giant Alpecin03:30:43  +  00:13:22=31,464 
63 CHEReto HollensteinCHEIAM Cycling03:30:51  +  00:13:30=31,444 
64 FRAPerrig QuemeneurFRATeam Europcar03:30:51  +  00:13:30=31,444 
65 CHEMartin ElmigerCHEIAM Cycling03:31:11  +  00:13:50=31,395 
66 FRAJean-Christophe PeraudFRAAg2r La Mondiale03:31:38  +  00:14:17=31,328 
67 AUSMichael RogersRUSTinkoff Saxo03:31:38  +  00:14:17=31,328 
68 PRTJosé João PimentaDEUBora-Argon 1803:32:01  +  00:14:40=31,271 
69 ITAMatteo BonoITALampre-Merida03:32:10  +  00:14:49=31,249 
70 CHEDanilo WyssUSABMC Racing Team03:32:10  +  00:14:49=31,249 
71 HRVKristijan DurasekITALampre-Merida03:32:10  +  00:14:49=31,249 
72 ESPImanol ErvitiESPMovistar Team03:32:10  +  00:14:49=31,249 
73 USRRamunas NavardauskasUSATeam Cannondale - Garmin03:32:26  +  00:15:05=31,210 
74 FRAJulien SimonFRACofidis – Solutions Crédits03:32:31  +  00:15:10=31,198 
75 ERIMerhawi GhebremedhinZAFMTN - Qhubeka P/B Samsung03:34:57  +  00:17:36=30,844 
76 BELStijn DevolderUSATrek Factory Racing03:34:57  +  00:17:36=30,844 
77 FRAAnthony DelaplaceFRABretagne - Séché Environnement03:34:57  +  00:17:36=30,844 
78 FRAChristophe LaporteFRACofidis – Solutions Crédits03:36:47  +  00:19:26=30,584 
79 BELSep VanmarckeNLDTeam Lotto NL - Jumbo03:36:47  +  00:19:26=30,584 
80 AUSRohan DennisUSABMC Racing Team03:36:47  +  00:19:26=30,584 
81 ITADaniel OssUSABMC Racing Team03:36:47  +  00:19:26=30,584 
82 ITADamiano CarusoUSABMC Racing Team03:36:47  +  00:19:26=30,584 
83 NLDDylan Van BaarleUSATeam Cannondale - Garmin03:36:47  +  00:19:26=30,584 
84 NLDWilco KeldermanNLDTeam Lotto NL - Jumbo03:36:47  +  00:19:26=30,584 
85 ITAAdriano MaloriESPMovistar Team03:36:47  +  00:19:26=30,584 
86 NLDAlbert TimmerDEUTeam Giant Alpecin03:36:47  +  00:19:26=30,584 
87 ESPJosé Herrada LópezESPMovistar Team03:36:47  +  00:19:26=30,584 
88 CZELeopold KönigGBRSky Procycling03:36:47  +  00:19:26=30,584 
89 NLDLieuwe WestraKAZAstana Pro Team03:36:47  +  00:19:26=30,584 
90 COLRigoberto UranBELEtixx - Quick Step03:36:47  +  00:19:26=30,584 
91 NLDJos Van EmdenNLDTeam Lotto NL - Jumbo03:37:13  +  00:19:52=30,523 
92 NLDBram TankinkNLDTeam Lotto NL - Jumbo03:37:20  +  00:19:59=30,506 
93 NLDRoy CurversDEUTeam Giant Alpecin03:37:50  +  00:20:29=30,436 
94 CHEMichael SchärUSABMC Racing Team03:37:50  +  00:20:29=30,436 
95 NLDKoen De KortDEUTeam Giant Alpecin03:37:50  +  00:20:29=30,436 
96 ITAMatteo TosattoRUSTinkoff Saxo03:38:40  +  00:21:19=30,320 
97 ITAFilippo PozzatoITALampre-Merida03:38:40  +  00:21:19=30,320 
98 SVKPeter SaganRUSTinkoff Saxo03:38:40  +  00:21:19=30,320 
99 ITAManuel QuinziatoUSABMC Racing Team03:38:40  +  00:21:19=30,320 
100 SVNKristjan KorenUSATeam Cannondale - Garmin03:38:40  +  00:21:19=30,320 
101 KAZDmitriy GruzdevKAZAstana Pro Team03:38:40  +  00:21:19=30,320 
102 FRAMatthieu LadagnousFRAFDJ03:38:40  +  00:21:19=30,320 
103 FRAJérémy RoyFRAFDJ03:38:40  +  00:21:19=30,320 
104 FRABenoit VaugrenardFRAFDJ03:38:40  +  00:21:19=30,320 
105 FRABryan CoquardFRATeam Europcar03:38:40  +  00:21:19=30,320 
106 FRAPierre-Luc PérichonFRABretagne - Séché Environnement03:38:40  +  00:21:19=30,320 
107 CHEGregory RastUSATrek Factory Racing03:38:40  +  00:21:19=30,320 
108 DEUEmanuel BuchmannDEUBora-Argon 1803:38:40  +  00:21:19=30,320 
109 WALLuke RoweGBRSky Procycling03:38:40  +  00:21:19=30,320 
110 ESPHaimar ZubeldiaUSATrek Factory Racing03:38:40  +  00:21:19=30,320 
111 FRAAngelo TulikFRATeam Europcar03:38:40  +  00:21:19=30,320 
112 AUTGeorg PreidlerDEUTeam Giant Alpecin03:38:40  +  00:21:19=30,320 
113 FRABryan NauleauFRATeam Europcar03:38:40  +  00:21:19=30,320 
114 FRACyril GautierFRATeam Europcar03:38:40  +  00:21:19=30,320 
115 UKRAndriy GrivkoKAZAstana Pro Team03:38:40  +  00:21:19=30,320 
116 FRAArnaud GérardFRABretagne - Séché Environnement03:38:40  +  00:21:19=30,320 
117 FRAFlorian VachonFRABretagne - Séché Environnement03:38:40  +  00:21:19=30,320 
118 ZAFJacques Janse Van RensburgZAFMTN - Qhubeka P/B Samsung03:38:40  +  00:21:19=30,320 
119 NOREdvald Boasson HagenZAFMTN - Qhubeka P/B Samsung03:38:40  +  00:21:19=30,320 
120 DEUPaul VossDEUBora-Argon 1803:38:40  +  00:21:19=30,320 
121 ENGIan StannardGBRSky Procycling03:38:40  +  00:21:19=30,320 
122 ESPGorka Izaguirre InsaustiESPMovistar Team03:38:40  +  00:21:19=30,320 
123 AUTMarco HallerRUSTeam Katusha03:38:40  +  00:21:19=30,320 
124 AUSAdam HansenBELLotto Soudal03:38:40  +  00:21:19=30,320 
125 FRAFrédéric BrunFRABretagne - Séché Environnement03:38:40  +  00:21:19=30,320 
126 ITADavide CimolaiITALampre-Merida03:38:40  +  00:21:19=30,320 
127 FRATony GallopinBELLotto Soudal03:38:40  +  00:21:19=30,320 
128 FRAYohann GèneFRATeam Europcar03:38:40  +  00:21:19=30,320 
129 FRADamien GaudinFRAAg2r La Mondiale03:38:40  +  00:21:19=30,320 
130 FRABrice FeilluFRABretagne - Séché Environnement03:38:40  +  00:21:19=30,320 
131 BELTim WellensBELLotto Soudal03:38:40  +  00:21:19=30,320 
132 POLBartosz HuzarskiDEUBora-Argon 1803:39:16  +  00:21:55=30,237 
133 COLJulián ArredondoUSATrek Factory Racing03:40:43  +  00:23:22=30,039 
134 CZEZdenek StybarBELEtixx - Quick Step03:41:18  +  00:23:57=29,959 
135 AUSMichael MatthewsAUSOrica - GreenEDGE03:41:18  +  00:23:57=29,959 
136 BELJulien VermoteBELEtixx - Quick Step03:41:18  +  00:23:57=29,959 
137 DEUAndré GreipelBELLotto Soudal03:41:18  +  00:23:57=29,959 
138 FRAFlorian SénéchalFRACofidis – Solutions Crédits03:41:18  +  00:23:57=29,959 
139 ESPMarkel IrizarUSATrek Factory Racing03:41:18  +  00:23:57=29,959 
140 BELKenneth VanbilsenFRACofidis – Solutions Crédits03:41:18  +  00:23:57=29,959 
141 BELJens DebusschereBELLotto Soudal03:41:18  +  00:23:57=29,959 
142 FRASébastien ChavanelFRAFDJ03:41:18  +  00:23:57=29,959 
143 ZAFReinardt Janse Van RensburgZAFMTN - Qhubeka P/B Samsung03:41:18  +  00:23:57=29,959 
144 DEUMarcel SiebergBELLotto Soudal03:41:18  +  00:23:57=29,959 
145 ITAMatteo TrentinBELEtixx - Quick Step03:41:18  +  00:23:57=29,959 
146 DEUJohn DegenkolbDEUTeam Giant Alpecin03:41:18  +  00:23:57=29,959 
147 DEUPaul MartensNLDTeam Lotto NL - Jumbo03:41:18  +  00:23:57=29,959 
148 FRAGeoffrey SoupeFRACofidis – Solutions Crédits03:41:18  +  00:23:57=29,959 
149 ITAJacopo GuarnieriRUSTeam Katusha03:41:18  +  00:23:57=29,959 
150 NLDLaurens ten DamNLDTeam Lotto NL - Jumbo03:41:18  +  00:23:57=29,959 
151 FRAArmindo FonsecaFRABretagne - Séché Environnement03:41:18  +  00:23:57=29,959 
152 POLMichal GolasBELEtixx - Quick Step03:41:18  +  00:23:57=29,959 
153 NLDTom LeezerNLDTeam Lotto NL - Jumbo03:41:18  +  00:23:57=29,959 
154 AUSLuke DurbridgeAUSOrica - GreenEDGE03:41:18  +  00:23:57=29,959 
155 CANSvein TuftAUSOrica - GreenEDGE03:41:18  +  00:23:57=29,959 
156 IMNMark CavendishBELEtixx - Quick Step03:41:18  +  00:23:57=29,959 
157 FRAArnaud DémareFRAFDJ03:41:18  +  00:23:57=29,959 
158 USATyler FarrarZAFMTN - Qhubeka P/B Samsung03:41:18  +  00:23:57=29,959 
159 NORAlexander KristoffRUSTeam Katusha03:41:18  +  00:23:57=29,959 
160 AUTMatthias BrändleCHEIAM Cycling03:41:18  +  00:23:57=29,959 


Todays birthdays.

1888  René Etien
1891  Arturo Ferrario
1913  Léon Theerlynck
1921  Roger Piel
1929  Antonio Ferraz
1930  Rizzardo Brenioli
1934  Orphée Meneghini
1943  Pietro Guerra
1961  Marc Somers
1964  Ettore Badolato
1967  Miguel Angel Martinez
1968  Davide Bramati
1981  Vasil Kiryienka